sat.trackr.live / text

‹ back to catalog

STARLINK-34376

NORAD 64300 · 2025-123K

PAYLOAD ACTIVE UNKNOWN

§ Identity

Operator
Country
US
Launch date
2025-06-08
Launch site
AFWTR
Launch vehicle
Mass (kg)
RCS (m²)

Purposes: comms

External: N2YO · Heavens-Above · Gunter

§ Orbital elements

Epoch: 2026-09-20T14:19:49.810656Z

Period
94.14 min
Inclination
70.0001°
Eccentricity
0.0003201
Mean motion
15.29587653 rev/d
Perigee alt
474.8 km
Apogee alt
479.2 km
Semi-major
6,855.2 km
B*
3.9067e-4
RAAN
60.6436°
Arg perigee
269.8255°
Mean anomaly
90.2553°
Rev number
7,087

§ Raw data

STARLINK-343761 64300U 25123K   26263.59710429  .00011122  00000+0  39067-3 0  99962 64300  70.0001  60.6436 0003201 269.8255  90.2553 15.29587653 70878

JSON: /api/v1/satellites/64300 · /tle

For live sub-satellite position, see the globe view (requires WebGL).

§ Visibility from observer

Set your observer location to see the next 7 days of passes ≥ 10°. The values pass through the URL so the page stays shareable.

No JS? Fill the form by hand. The geolocation button needs JavaScript.